| time (UTC) | temp F | wind direction | speed knots | gust knots | rain 1hr in | rain 24hr in | rain mn in | humidity % | barometer mb |
| 20260508005352 | 51 | 294 | 0.0 | 0.0 | 0.00 | 0.00 | 0.00 | 19 | 999.4 |
| 20260508004848 | 52 | 294 | 0.0 | 0.0 | 0.00 | 0.00 | 0.00 | 19 | 999.4 |
| 20260508004345 | 52 | 292 | 0.0 | 0.0 | 0.00 | 0.00 | 0.00 | 18 | 999.1 |
| 20260508003841 | 53 | 288 | 0.9 | 1.7 | 0.00 | 0.00 | 0.00 | 19 | 999.1 |
| 20260508003338 | 53 | 286 | 0.0 | 0.9 | 0.00 | 0.00 | 0.00 | 19 | 999.1 |
| 20260508002836 | 53 | 291 | 0.9 | 1.7 | 0.00 | 0.00 | 0.00 | 19 | 998.7 |
| 20260508002332 | 54 | 279 | 1.7 | 2.6 | 0.00 | 0.00 | 0.00 | 18 | 998.7 |
| 20260508001828 | 54 | 259 | 1.7 | 3.5 | 0.00 | 0.00 | 0.00 | 17 | 999.1 |
| 20260508001325 | 54 | 265 | 2.6 | 3.5 | 0.00 | 0.00 | 0.00 | 17 | 998.7 |
| 20260508000821 | 55 | 262 | 3.5 | 3.5 | 0.00 | 0.00 | 0.00 | 18 | 998.7 |
| 20260508000319 | 55 | 246 | 1.7 | 3.5 | 0.00 | 0.00 | 0.00 | 17 | 998.4 |
| 20260507235814 | 55 | 257 | 2.6 | 3.5 | 0.00 | 0.00 | 0.00 | 18 | 998.4 |
| 20260507235312 | 55 | 282 | 1.7 | 2.6 | 0.00 | 0.00 | 0.00 | 18 | 998.4 |
| 20260507234809 | 55 | 268 | 2.6 | 5.2 | 0.00 | 0.00 | 0.00 | 19 | 998.4 |
| 20260507234305 | 55 | 285 | 2.6 | 3.5 | 0.00 | 0.00 | 0.00 | 19 | 998.4 |
| 20260507233801 | 56 | 273 | 2.6 | 5.2 | 0.00 | 0.00 | 0.00 | 20 | 998.4 |
| 20260507233259 | 56 | 286 | 2.6 | 6.1 | 0.00 | 0.00 | 0.00 | 20 | 998.4 |
| 20260507232757 | 56 | 283 | 0.9 | 3.5 | 0.00 | 0.00 | 0.00 | 19 | 998.4 |
| 20260507232253 | 56 | 276 | 1.7 | 5.2 | 0.00 | 0.00 | 0.00 | 20 | 998.4 |
| 20260507231750 | 56 | 266 | 3.5 | 5.2 | 0.00 | 0.00 | 0.00 | 19 | 998.4 |
| 20260507231247 | 57 | 284 | 2.6 | 7.0 | 0.00 | 0.00 | 0.00 | 20 | 998.1 |
| 20260507230743 | 57 | 264 | 3.5 | 5.2 | 0.00 | 0.00 | 0.00 | 19 | 998.4 |
| 20260507230241 | 57 | 274 | 5.2 | 6.1 | 0.00 | 0.00 | 0.00 | 19 | 998.1 |
| 20260507225740 | 57 | 270 | 2.6 | 6.1 | 0.00 | 0.00 | 0.00 | 19 | 998.4 |
| 20260507225237 | 57 | 276 | 4.3 | 7.0 | 0.00 | 0.00 | 0.00 | 19 | 998.1 |
| 20260507224733 | 58 | 271 | 5.2 | 6.1 | 0.00 | 0.00 | 0.00 | 21 | 998.1 |
| 20260507224230 | 58 | 276 | 4.3 | 7.8 | 0.00 | 0.00 | 0.00 | 21 | 998.1 |
| 20260507223726 | 58 | 293 | 4.3 | 7.0 | 0.00 | 0.00 | 0.00 | 21 | 997.4 |
| 20260507223223 | 58 | 274 | 5.2 | 6.1 | 0.00 | 0.00 | 0.00 | 21 | 997.4 |
| 20260507222719 | 58 | 279 | 3.5 | 7.0 | 0.00 | 0.00 | 0.00 | 21 | 997.4 |
| 20260507222216 | 58 | 292 | 3.5 | 6.1 | 0.00 | 0.00 | 0.00 | 21 | 997.7 |
| 20260507221713 | 57 | 280 | 4.3 | 6.1 | 0.00 | 0.00 | 0.00 | 18 | 997.7 |
| 20260507221209 | 57 | 279 | 3.5 | 6.1 | 0.00 | 0.00 | 0.00 | 19 | 997.7 |
| 20260507220706 | 58 | 250 | 3.5 | 6.1 | 0.00 | 0.00 | 0.00 | 21 | 998.1 |
| 20260507220204 | 58 | 283 | 3.5 | 6.1 | 0.00 | 0.00 | 0.00 | 21 | 997.7 |
| 20260507215700 | 58 | 279 | 3.5 | 6.1 | 0.00 | 0.00 | 0.00 | 21 | 998.1 |
| 20260507215157 | 58 | 271 | 4.3 | 7.0 | 0.00 | 0.00 | 0.00 | 21 | 998.1 |
| 20260507214655 | 58 | 267 | 4.3 | 7.0 | 0.00 | 0.00 | 0.00 | 21 | 998.1 |
| 20260507214151 | 58 | 266 | 6.1 | 7.8 | 0.00 | 0.00 | 0.00 | 21 | 997.7 |
| 20260507213647 | 58 | 275 | 5.2 | 7.8 | 0.00 | 0.00 | 0.00 | 21 | 997.7 |
| 20260507213144 | 58 | 292 | 4.3 | 6.1 | 0.00 | 0.00 | 0.00 | 21 | 997.7 |
| 20260507212640 | 57 | 280 | 4.3 | 6.1 | 0.00 | 0.00 | 0.00 | 18 | 998.1 |
| 20260507212137 | 57 | 286 | 5.2 | 7.0 | 0.00 | 0.00 | 0.00 | 22 | 997.7 |
| 20260507211634 | 58 | 288 | 6.1 | 7.8 | 0.00 | 0.00 | 0.00 | 21 | 997.7 |
| 20260507211129 | 58 | 284 | 5.2 | 7.8 | 0.00 | 0.00 | 0.00 | 21 | 997.7 |
| 20260507210628 | 57 | 292 | 3.5 | 5.2 | 0.00 | 0.00 | 0.00 | 18 | 997.7 |
| 20260507210124 | 56 | 291 | 5.2 | 7.0 | 0.00 | 0.00 | 0.00 | 19 | 998.1 |
| 20260507205621 | 57 | 272 | 4.3 | 7.8 | 0.00 | 0.00 | 0.00 | 19 | 997.4 |
| 20260507205117 | 57 | 275 | 4.3 | 6.1 | 0.00 | 0.00 | 0.00 | 19 | 997.7 |
| 20260507204613 | 56 | 277 | 3.5 | 5.2 | 0.00 | 0.00 | 0.00 | 19 | 997.7 |
| 20260507204111 | 56 | 264 | 6.1 | 8.7 | 0.00 | 0.00 | 0.00 | 19 | 997.4 |
| 20260507203609 | 56 | 296 | 5.2 | 7.8 | 0.00 | 0.00 | 0.00 | 19 | 997.4 |
| 20260507203106 | 57 | 282 | 6.1 | 7.8 | 0.00 | 0.00 | 0.00 | 21 | 997.4 |
| 20260507202601 | 57 | 324 | 3.5 | 6.1 | 0.00 | 0.00 | 0.00 | 22 | 997.4 |
| 20260507202058 | 58 | 270 | 5.2 | 7.0 | 0.00 | 0.00 | 0.00 | 21 | 997.4 |
| 20260507201553 | 57 | 275 | 6.1 | 7.0 | 0.00 | 0.00 | 0.00 | 22 | 997.7 |
| 20260507201050 | 57 | 278 | 5.2 | 7.8 | 0.00 | 0.00 | 0.00 | 18 | 997.4 |
| 20260507200545 | 57 | 262 | 7.8 | 8.7 | 0.00 | 0.00 | 0.00 | 19 | 997.7 |
| 20260507200042 | 56 | 280 | 5.2 | 7.0 | 0.00 | 0.00 | 0.00 | 19 | 997.7 |
| 20260507195539 | 57 | 249 | 7.8 | 8.7 | 0.00 | 0.00 | 0.00 | 22 | 997.7 |
| 20260507195037 | 57 | 293 | 7.0 | 7.8 | 0.00 | 0.00 | 0.00 | 22 | 997.7 |
| 20260507194533 | 57 | 293 | 7.0 | 7.0 | 0.00 | 0.00 | 0.00 | 22 | 997.7 |
| 20260507194029 | 57 | 273 | 7.0 | 9.6 | 0.00 | 0.00 | 0.00 | 22 | 997.7 |
| 20260507193526 | 57 | 277 | 4.3 | 5.2 | 0.00 | 0.00 | 0.00 | 22 | 997.7 |
| 20260507193023 | 56 | 280 | 3.5 | 7.0 | 0.00 | 0.00 | 0.00 | 20 | 997.7 |
| 20260507192519 | 57 | 290 | 4.3 | 8.7 | 0.00 | 0.00 | 0.00 | 22 | 998.1 |
| 20260507192016 | 57 | 268 | 6.1 | 7.0 | 0.00 | 0.00 | 0.00 | 22 | 997.7 |
| 20260507191511 | 56 | 285 | 5.2 | 7.8 | 0.00 | 0.00 | 0.00 | 19 | 997.7 |
| 20260507191009 | 56 | 269 | 5.2 | 7.0 | 0.00 | 0.00 | 0.00 | 20 | 997.7 |
| 20260507190506 | 56 | 283 | 5.2 | 7.8 | 0.00 | 0.00 | 0.00 | 20 | 998.1 |
| 20260507190006 | 56 | 290 | 4.3 | 7.0 | 0.00 | 0.00 | 0.00 | 19 | 998.1 |
| 20260507185502 | 56 | 274 | 3.5 | 7.8 | 0.00 | 0.00 | 0.00 | 19 | 998.1 |
| 20260507184959 | 56 | 286 | 3.5 | 7.0 | 0.00 | 0.00 | 0.00 | 20 | 998.1 |
| 20260507184457 | 56 | 283 | 3.5 | 7.8 | 0.00 | 0.00 | 0.00 | 20 | 998.1 |
| 20260507183955 | 56 | 290 | 2.6 | 6.1 | 0.00 | 0.00 | 0.00 | 20 | 998.1 |
| 20260507183450 | 56 | 291 | 4.3 | 9.6 | 0.00 | 0.00 | 0.00 | 19 | 998.1 |
| 20260507182948 | 56 | 279 | 6.1 | 7.8 | 0.00 | 0.00 | 0.00 | 20 | 998.1 |
| 20260507182444 | 56 | 264 | 5.2 | 7.0 | 0.00 | 0.00 | 0.00 | 20 | 998.1 |
| 20260507181940 | 56 | 265 | 4.3 | 7.8 | 0.00 | 0.00 | 0.00 | 19 | 998.1 |
| 20260507181436 | 56 | 250 | 7.0 | 7.8 | 0.00 | 0.00 | 0.00 | 20 | 998.1 |
| 20260507180933 | 56 | 297 | 4.3 | 7.8 | 0.00 | 0.00 | 0.00 | 20 | 998.1 |
| 20260507180430 | 55 | 287 | 2.6 | 6.1 | 0.00 | 0.00 | 0.00 | 19 | 998.1 |
| 20260507175926 | 55 | 266 | 4.3 | 7.8 | 0.00 | 0.00 | 0.00 | 20 | 998.1 |
| 20260507175423 | 55 | 268 | 4.3 | 7.0 | 0.00 | 0.00 | 0.00 | 17 | 998.4 |
| 20260507174921 | 55 | 293 | 4.3 | 7.0 | 0.00 | 0.00 | 0.00 | 17 | 998.1 |
| 20260507174418 | 55 | 278 | 4.3 | 7.8 | 0.00 | 0.00 | 0.00 | 17 | 998.1 |
| 20260507173915 | 55 | 260 | 5.2 | 7.0 | 0.00 | 0.00 | 0.00 | 17 | 998.1 |
| 20260507173412 | 55 | 284 | 5.2 | 7.8 | 0.00 | 0.00 | 0.00 | 18 | 998.1 |
| 20260507172908 | 55 | 284 | 5.2 | 7.0 | 0.00 | 0.00 | 0.00 | 18 | 998.1 |
| 20260507172405 | 55 | 272 | 3.5 | 8.7 | 0.00 | 0.00 | 0.00 | 18 | 998.1 |
| 20260507171901 | 55 | 277 | 5.2 | 9.6 | 0.00 | 0.00 | 0.00 | 18 | 998.7 |
| 20260507171358 | 55 | 268 | 5.2 | 7.8 | 0.00 | 0.00 | 0.00 | 18 | 998.4 |
| 20260507170855 | 54 | 328 | 5.2 | 7.0 | 0.00 | 0.00 | 0.00 | 18 | 998.7 |
| 20260507170351 | 55 | 279 | 4.3 | 7.0 | 0.00 | 0.00 | 0.00 | 18 | 998.4 |
| 20260507165848 | 55 | 286 | 3.5 | 5.2 | 0.00 | 0.00 | 0.00 | 18 | 998.4 |
| 20260507165343 | 54 | 277 | 6.1 | 7.0 | 0.00 | 0.00 | 0.00 | 18 | 998.7 |
| 20260507164840 | 54 | 277 | 4.3 | 5.2 | 0.00 | 0.00 | 0.00 | 18 | 998.7 |
| 20260507164337 | 53 | 286 | 3.5 | 5.2 | 0.00 | 0.00 | 0.00 | 19 | 998.7 |
| 20260507163834 | 53 | 258 | 5.2 | 6.1 | 0.00 | 0.00 | 0.00 | 19 | 998.7 |
| 20260507163331 | 53 | 295 | 5.2 | 7.8 | 0.00 | 0.00 | 0.00 | 19 | 999.1 |
| 20260507162828 | 53 | 286 | 3.5 | 7.0 | 0.00 | 0.00 | 0.00 | 19 | 999.1 |
| 20260507162323 | 53 | 293 | 4.3 | 6.1 | 0.00 | 0.00 | 0.00 | 20 | 999.1 |
| 20260507161821 | 53 | 288 | 5.2 | 8.7 | 0.00 | 0.00 | 0.00 | 20 | 999.1 |
| 20260507161317 | 53 | 296 | 3.5 | 6.1 | 0.00 | 0.00 | 0.00 | 20 | 999.1 |
| 20260507160814 | 53 | 324 | 3.5 | 6.1 | 0.00 | 0.00 | 0.00 | 19 | 999.1 |
| 20260507160309 | 53 | 273 | 3.5 | 6.1 | 0.00 | 0.00 | 0.00 | 19 | 999.1 |
| 20260507155806 | 53 | 293 | 4.3 | 6.1 | 0.00 | 0.00 | 0.00 | 19 | 999.1 |
| 20260507155306 | 53 | 282 | 5.2 | 6.1 | 0.00 | 0.00 | 0.00 | 19 | 999.4 |
| 20260507154759 | 53 | 284 | 5.2 | 6.1 | 0.00 | 0.00 | 0.00 | 19 | 999.4 |
| 20260507154256 | 53 | 279 | 6.1 | 8.7 | 0.00 | 0.00 | 0.00 | 19 | 999.1 |
| 20260507153752 | 54 | 271 | 3.5 | 7.0 | 0.00 | 0.00 | 0.00 | 18 | 999.4 |
| 20260507153249 | 54 | 270 | 7.8 | 7.8 | 0.00 | 0.00 | 0.00 | 18 | 999.4 |
| 20260507152746 | 53 | 287 | 6.1 | 7.0 | 0.00 | 0.00 | 0.00 | 19 | 999.4 |
| 20260507152242 | 53 | 264 | 3.5 | 7.8 | 0.00 | 0.00 | 0.00 | 19 | 999.4 |
| 20260507151738 | 53 | 292 | 4.3 | 6.1 | 0.00 | 0.00 | 0.00 | 20 | 999.4 |
| 20260507151234 | 54 | 283 | 3.5 | 7.0 | 0.00 | 0.00 | 0.00 | 18 | 999.4 |
| 20260507150731 | 53 | 261 | 4.3 | 6.1 | 0.00 | 0.00 | 0.00 | 20 | 999.4 |
| 20260507150228 | 53 | 284 | 3.5 | 6.1 | 0.00 | 0.00 | 0.00 | 20 | 999.7 |
| 20260507145724 | 53 | 278 | 4.3 | 7.0 | 0.00 | 0.00 | 0.00 | 20 | 999.4 |
| 20260507145221 | 53 | 291 | 3.5 | 7.0 | 0.00 | 0.00 | 0.00 | 20 | 999.7 |
| 20260507144718 | 53 | 289 | 3.5 | 7.8 | 0.00 | 0.00 | 0.00 | 20 | 999.4 |
| 20260507144216 | 53 | 282 | 4.3 | 7.0 | 0.00 | 0.00 | 0.00 | 19 | 999.4 |
| 20260507143712 | 53 | 267 | 5.2 | 7.0 | 0.00 | 0.00 | 0.00 | 20 | 999.4 |
| 20260507143209 | 52 | 287 | 3.5 | 6.1 | 0.00 | 0.00 | 0.00 | 21 | 999.1 |
| 20260507142705 | 52 | 263 | 5.2 | 6.1 | 0.00 | 0.00 | 0.00 | 20 | 999.4 |
| 20260507142202 | 53 | 295 | 2.6 | 5.2 | 0.00 | 0.00 | 0.00 | 20 | 999.4 |
| 20260507141658 | 53 | 285 | 3.5 | 6.1 | 0.00 | 0.00 | 0.00 | 19 | 999.7 |
| 20260507141155 | 53 | 280 | 4.3 | 7.0 | 0.00 | 0.00 | 0.00 | 20 | 999.1 |
| 20260507140651 | 52 | 268 | 4.3 | 7.8 | 0.00 | 0.00 | 0.00 | 19 | 999.4 |
| 20260507140149 | 52 | 280 | 2.6 | 6.1 | 0.00 | 0.00 | 0.00 | 20 | 999.4 |
| 20260507135646 | 52 | 283 | 3.5 | 6.1 | 0.00 | 0.00 | 0.00 | 20 | 999.1 |
| 20260507135143 | 52 | 295 | 1.7 | 2.6 | 0.00 | 0.00 | 0.00 | 20 | 999.4 |
| 20260507134639 | 52 | 267 | 2.6 | 5.2 | 0.00 | 0.00 | 0.00 | 20 | 999.4 |
| 20260507134136 | 52 | 260 | 1.7 | 3.5 | 0.00 | 0.00 | 0.00 | 20 | 999.4 |
| 20260507133632 | 51 | 271 | 3.5 | 3.5 | 0.00 | 0.00 | 0.00 | 21 | 999.4 |
| 20260507133129 | 51 | 263 | 3.5 | 3.5 | 0.00 | 0.00 | 0.00 | 21 | 999.4 |
| 20260507132626 | 51 | 288 | 3.5 | 3.5 | 0.00 | 0.00 | 0.00 | 21 | 999.7 |
| 20260507132122 | 51 | 281 | 3.5 | 5.2 | 0.00 | 0.00 | 0.00 | 22 | 999.7 |
| 20260507131619 | 51 | 283 | 3.5 | 3.5 | 0.00 | 0.00 | 0.00 | 22 | 999.7 |
| 20260507131117 | 51 | 283 | 2.6 | 5.2 | 0.00 | 0.00 | 0.00 | 21 | 999.7 |
| 20260507130613 | 51 | 265 | 2.6 | 3.5 | 0.00 | 0.00 | 0.00 | 22 | 999.7 |
| 20260507130111 | 51 | 274 | 3.5 | 5.2 | 0.00 | 0.00 | 0.00 | 23 | 1000.1 |
| 20260507125610 | 51 | 288 | 1.7 | 2.6 | 0.00 | 0.00 | 0.00 | 22 | 999.7 |
| 20260507125107 | 51 | 282 | 2.6 | 3.5 | 0.00 | 0.00 | 0.00 | 23 | 999.7 |
| 20260507124603 | 51 | 289 | 1.7 | 2.6 | 0.00 | 0.00 | 0.00 | 22 | 999.7 |
| 20260507124101 | 50 | 297 | 1.7 | 2.6 | 0.00 | 0.00 | 0.00 | 22 | 999.7 |
| 20260507123559 | 50 | 287 | 2.6 | 5.2 | 0.00 | 0.00 | 0.00 | 23 | 999.7 |
| 20260507123055 | 50 | 290 | 3.5 | 3.5 | 0.00 | 0.00 | 0.00 | 24 | 1000.1 |
| 20260507122551 | 50 | 286 | 2.6 | 3.5 | 0.00 | 0.00 | 0.00 | 26 | 999.7 |
| 20260507122047 | 50 | 283 | 2.6 | 3.5 | 0.00 | 0.00 | 0.00 | 27 | 999.7 |
| 20260507121543 | 50 | 292 | 1.7 | 3.5 | 0.00 | 0.00 | 0.00 | 26 | 999.7 |
| 20260507121039 | 50 | 280 | 4.3 | 6.1 | 0.00 | 0.00 | 0.00 | 27 | 999.7 |
| 20260507120535 | 50 | 296 | 2.6 | 3.5 | 0.00 | 0.00 | 0.00 | 27 | 999.7 |
| 20260507120032 | 49 | 280 | 2.6 | 3.5 | 0.00 | 0.00 | 0.00 | 30 | 999.7 |
| 20260507115528 | 49 | 275 | 1.7 | 5.2 | 0.00 | 0.00 | 0.00 | 29 | 999.7 |
| 20260507115024 | 49 | 284 | 3.5 | 5.2 | 0.00 | 0.00 | 0.00 | 28 | 999.7 |
| 20260507114520 | 48 | 291 | 3.5 | 5.2 | 0.00 | 0.00 | 0.00 | 31 | 999.7 |
| 20260507114018 | 48 | 283 | 3.5 | 3.5 | 0.00 | 0.00 | 0.00 | 32 | 999.7 |
| 20260507113515 | 48 | 289 | 2.6 | 2.6 | 0.00 | 0.00 | 0.00 | 32 | 999.7 |
| 20260507113012 | 47 | 285 | 1.7 | 3.5 | 0.00 | 0.00 | 0.00 | 33 | 999.7 |
| 20260507112510 | 47 | 297 | 1.7 | 1.7 | 0.00 | 0.00 | 0.00 | 34 | 999.7 |
| 20260507112006 | 46 | 288 | 0.0 | 0.9 | 0.00 | 0.00 | 0.00 | 33 | 999.7 |
| 20260507111504 | 46 | 288 | 0.9 | 1.7 | 0.00 | 0.00 | 0.00 | 34 | 999.4 |
| 20260507110959 | 46 | 291 | 0.0 | 1.7 | 0.00 | 0.00 | 0.00 | 34 | 999.7 |
| 20260507110456 | 46 | 290 | 0.0 | 0.0 | 0.00 | 0.00 | 0.00 | 34 | 999.4 |
| 20260507105952 | 46 | 273 | 0.9 | 1.7 | 0.00 | 0.00 | 0.00 | 34 | 999.7 |
| 20260507105449 | 46 | 291 | 0.0 | 0.0 | 0.00 | 0.00 | 0.00 | 35 | 999.7 |
| 20260507104946 | 46 | 286 | 0.9 | 1.7 | 0.00 | 0.00 | 0.00 | 36 | 1000.1 |
| 20260507104443 | 46 | 293 | 0.9 | 1.7 | 0.00 | 0.00 | 0.00 | 34 | 999.7 |
| 20260507103938 | 47 | 293 | 1.7 | 2.6 | 0.00 | 0.00 | 0.00 | 36 | 999.7 |
| 20260507103436 | 47 | 288 | 1.7 | 2.6 | 0.00 | 0.00 | 0.00 | 34 | 999.4 |
| 20260507102932 | 46 | 295 | 0.9 | 1.7 | 0.00 | 0.00 | 0.00 | 35 | 999.7 |
| 20260507102429 | 46 | 290 | 0.9 | 1.7 | 0.00 | 0.00 | 0.00 | 34 | 1000.1 |
| 20260507101925 | 47 | 288 | 0.9 | 2.6 | 0.00 | 0.00 | 0.00 | 36 | 999.7 |
| 20260507101420 | 47 | 294 | 1.7 | 1.7 | 0.00 | 0.00 | 0.00 | 37 | 999.7 |
| 20260507100917 | 47 | 289 | 1.7 | 2.6 | 0.00 | 0.00 | 0.00 | 37 | 999.7 |
| 20260507100415 | 47 | 292 | 2.6 | 2.6 | 0.00 | 0.00 | 0.00 | 37 | 999.7 |
| 20260507095913 | 47 | 284 | 1.7 | 3.5 | 0.00 | 0.00 | 0.00 | 36 | 999.7 |
| 20260507095409 | 47 | 296 | 1.7 | 2.6 | 0.00 | 0.00 | 0.00 | 37 | 999.4 |
| 20260507094907 | 47 | 287 | 1.7 | 2.6 | 0.00 | 0.00 | 0.00 | 37 | 1000.1 |
| 20260507094403 | 47 | 338 | 0.9 | 1.7 | 0.00 | 0.00 | 0.00 | 36 | 999.7 |
| 20260507093900 | 47 | 294 | 0.9 | 2.6 | 0.00 | 0.00 | 0.00 | 37 | 999.7 |
| 20260507093358 | 47 | 282 | 1.7 | 2.6 | 0.00 | 0.00 | 0.00 | 36 | 999.7 |
| 20260507092856 | 47 | 276 | 1.7 | 2.6 | 0.00 | 0.00 | 0.00 | 37 | 999.7 |
| 20260507092352 | 47 | 280 | 0.9 | 1.7 | 0.00 | 0.00 | 0.00 | 36 | 999.7 |
| 20260507091849 | 47 | 297 | 1.7 | 2.6 | 0.00 | 0.00 | 0.00 | 36 | 999.7 |
| 20260507091345 | 47 | 292 | 0.9 | 2.6 | 0.00 | 0.00 | 0.00 | 36 | 999.4 |
| 20260507090841 | 47 | 291 | 1.7 | 1.7 | 0.00 | 0.00 | 0.00 | 36 | 999.1 |
| 20260507090337 | 47 | 295 | 0.9 | 2.6 | 0.00 | 0.00 | 0.00 | 36 | 999.1 |
| 20260507085834 | 47 | 297 | 1.7 | 2.6 | 0.00 | 0.00 | 0.00 | 37 | 999.1 |
| 20260507085331 | 47 | 296 | 0.9 | 2.6 | 0.00 | 0.00 | 0.00 | 36 | 999.1 |
| 20260507084829 | 47 | 329 | 0.9 | 3.5 | 0.00 | 0.00 | 0.00 | 37 | 999.1 |
| 20260507084325 | 48 | 332 | 1.7 | 2.6 | 0.00 | 0.00 | 0.00 | 36 | 999.7 |
| 20260507083822 | 47 | 331 | 1.7 | 2.6 | 0.00 | 0.00 | 0.00 | 36 | 999.4 |
| 20260507083319 | 48 | 296 | 1.7 | 2.6 | 0.00 | 0.00 | 0.00 | 36 | 999.4 |
| 20260507082815 | 48 | 328 | 1.7 | 2.6 | 0.00 | 0.00 | 0.00 | 37 | 999.1 |
| 20260507082310 | 47 | 290 | 2.6 | 3.5 | 0.00 | 0.00 | 0.00 | 36 | 999.1 |
| 20260507081808 | 47 | 275 | 3.5 | 5.2 | 0.00 | 0.00 | 0.00 | 35 | 999.4 |
| 20260507081304 | 48 | 289 | 1.7 | 2.6 | 0.00 | 0.00 | 0.00 | 36 | 999.4 |
| 20260507080801 | 48 | 294 | 1.7 | 3.5 | 0.00 | 0.00 | 0.00 | 36 | 999.4 |
| 20260507080257 | 48 | 296 | 2.6 | 3.5 | 0.00 | 0.00 | 0.00 | 35 | 999.1 |
| 20260507075752 | 48 | 297 | 1.7 | 2.6 | 0.00 | 0.00 | 0.00 | 35 | 998.7 |
| 20260507075248 | 48 | 344 | 1.7 | 2.6 | 0.00 | 0.00 | 0.00 | 35 | 999.1 |
| 20260507074745 | 48 | 291 | 1.7 | 2.6 | 0.00 | 0.00 | 0.00 | 35 | 999.1 |
| 20260507074243 | 48 | 276 | 3.5 | 3.5 | 0.00 | 0.00 | 0.00 | 35 | 999.1 |
| 20260507073739 | 48 | 293 | 2.6 | 3.5 | 0.00 | 0.00 | 0.00 | 34 | 999.1 |
| 20260507073236 | 48 | 290 | 2.6 | 3.5 | 0.00 | 0.00 | 0.00 | 35 | 998.4 |
| 20260507072734 | 48 | 280 | 3.5 | 5.2 | 0.00 | 0.00 | 0.00 | 34 | 998.7 |
| 20260507072231 | 48 | 281 | 5.2 | 6.1 | 0.00 | 0.00 | 0.00 | 34 | 998.4 |
| 20260507071729 | 48 | 286 | 2.6 | 5.2 | 0.00 | 0.00 | 0.00 | 34 | 998.4 |
| 20260507071225 | 48 | 287 | 1.7 | 5.2 | 0.00 | 0.00 | 0.00 | 34 | 998.4 |
| 20260507070722 | 48 | 274 | 1.7 | 3.5 | 0.00 | 0.00 | 0.00 | 34 | 998.7 |
| 20260507070219 | 48 | 293 | 2.6 | 2.6 | 0.00 | 0.00 | 0.00 | 33 | 998.7 |
| 20260507065715 | 48 | 296 | 1.7 | 5.2 | 0.00 | 0.00 | 0.00 | 33 | 998.7 |
| 20260507065212 | 48 | 297 | 1.7 | 5.2 | 0.00 | 0.00 | 0.00 | 33 | 999.1 |
| 20260507064709 | 49 | 283 | 1.7 | 3.5 | 0.00 | 0.00 | 0.00 | 33 | 998.4 |
| 20260507064209 | 48 | 334 | 1.7 | 2.6 | 0.00 | 0.00 | 0.00 | 33 | 999.1 |
| 20260507063705 | 48 | 293 | 0.0 | 1.7 | 0.00 | 0.00 | 0.00 | 33 | 998.7 |
| 20260507063202 | 48 | 276 | 0.9 | 0.9 | 0.00 | 0.00 | 0.00 | 34 | 998.4 |
| 20260507062659 | 49 | 297 | 1.7 | 2.6 | 0.00 | 0.00 | 0.00 | 33 | 998.1 |
| 20260507062156 | 49 | 292 | 0.0 | 0.9 | 0.00 | 0.00 | 0.00 | 34 | 998.1 |
| 20260507061654 | 49 | 281 | 1.7 | 2.6 | 0.00 | 0.00 | 0.00 | 34 | 998.7 |
| 20260507061152 | 49 | 288 | 1.7 | 2.6 | 0.00 | 0.00 | 0.00 | 36 | 998.7 |
| 20260507060650 | 48 | 287 | 0.0 | 1.7 | 0.00 | 0.00 | 0.00 | 36 | 998.4 |
| 20260507060146 | 49 | 282 | 0.0 | 0.9 | 0.00 | 0.00 | 0.00 | 37 | 998.4 |
| 20260507055642 | 49 | 292 | 0.0 | 0.9 | 0.00 | 0.00 | 0.00 | 35 | 998.1 |
| 20260507055138 | 49 | 293 | 0.0 | 0.0 | 0.00 | 0.00 | 0.00 | 36 | 998.1 |
| 20260507054634 | 49 | 286 | 0.0 | 0.9 | 0.00 | 0.00 | 0.00 | 35 | 998.1 |
| 20260507054131 | 49 | 285 | 1.7 | 3.5 | 0.00 | 0.00 | 0.00 | 34 | 998.1 |
| 20260507053629 | 49 | 274 | 2.6 | 2.6 | 0.00 | 0.00 | 0.00 | 35 | 998.1 |
| 20260507053127 | 50 | 262 | 1.7 | 2.6 | 0.00 | 0.00 | 0.00 | 35 | 998.1 |
| 20260507052625 | 50 | 276 | 1.7 | 2.6 | 0.00 | 0.00 | 0.00 | 35 | 998.1 |
| 20260507052121 | 50 | 293 | 2.6 | 5.2 | 0.00 | 0.00 | 0.00 | 35 | 998.1 |
| 20260507051619 | 50 | 332 | 2.6 | 2.6 | 0.00 | 0.00 | 0.00 | 35 | 998.1 |
| 20260507051115 | 50 | 345 | 1.7 | 1.7 | 0.00 | 0.00 | 0.00 | 35 | 998.1 |
| 20260507050612 | 50 | 331 | 2.6 | 2.6 | 0.00 | 0.00 | 0.00 | 35 | 997.4 |
| 20260507050109 | 50 | 340 | 1.7 | 2.6 | 0.00 | 0.00 | 0.00 | 34 | 998.1 |
| 20260507045605 | 50 | 288 | 0.9 | 2.6 | 0.00 | 0.00 | 0.00 | 35 | 998.4 |
| 20260507045102 | 50 | 268 | 1.7 | 3.5 | 0.00 | 0.00 | 0.00 | 34 | 998.4 |
| 20260507044559 | 50 | 292 | 3.5 | 5.2 | 0.00 | 0.00 | 0.00 | 34 | 998.1 |
| 20260507044056 | 50 | 286 | 3.5 | 3.5 | 0.00 | 0.00 | 0.00 | 35 | 998.1 |
| 20260507043551 | 50 | 272 | 3.5 | 3.5 | 0.00 | 0.00 | 0.00 | 35 | 998.1 |
| 20260507043049 | 50 | 280 | 2.6 | 6.1 | 0.00 | 0.00 | 0.00 | 35 | 997.7 |
| 20260507042545 | 51 | 278 | 5.2 | 6.1 | 0.00 | 0.00 | 0.00 | 35 | 997.7 |
| 20260507042041 | 51 | 289 | 4.3 | 6.1 | 0.00 | 0.00 | 0.00 | 34 | 997.7 |
| 20260507041538 | 51 | 291 | 3.5 | 6.1 | 0.00 | 0.00 | 0.00 | 35 | 997.7 |
| 20260507041035 | 51 | 276 | 3.5 | 6.1 | 0.00 | 0.00 | 0.00 | 36 | 997.7 |
| 20260507040531 | 51 | 273 | 3.5 | 7.0 | 0.00 | 0.00 | 0.00 | 37 | 997.7 |
| 20260507040027 | 51 | 258 | 5.2 | 6.1 | 0.00 | 0.14 | 0.14 | 40 | 997.7 |
| 20260507035523 | 51 | 265 | 4.3 | 5.2 | 0.00 | 0.14 | 0.14 | 39 | 997.7 |
| 20260507035020 | 52 | 263 | 6.1 | 7.8 | 0.00 | 0.14 | 0.14 | 38 | 997.7 |
| 20260507034517 | 52 | 279 | 5.2 | 6.1 | 0.05 | 0.14 | 0.14 | 37 | 997.7 |
| 20260507034015 | 52 | 289 | 3.5 | 5.2 | 0.12 | 0.14 | 0.14 | 36 | 997.7 |
| 20260507033513 | 53 | 282 | 1.7 | 6.1 | 0.07 | 0.13 | 0.13 | 36 | 997.7 |
| 20260507033010 | 53 | 273 | 3.5 | 6.1 | 0.00 | 0.12 | 0.12 | 35 | 998.1 |
| 20260507032506 | 54 | 281 | 4.3 | 7.8 | 0.00 | 0.12 | 0.12 | 32 | 998.1 |
| 20260507032003 | 54 | 270 | 5.2 | 7.8 | 0.00 | 0.12 | 0.12 | 33 | 998.1 |
| 20260507031459 | 54 | 285 | 2.6 | 5.2 | 0.00 | 0.12 | 0.12 | 34 | 997.7 |
| 20260507030956 | 54 | 296 | 1.7 | 5.2 | 0.00 | 0.12 | 0.12 | 34 | 998.1 |
| 20260507030453 | 54 | 267 | 4.3 | 7.0 | 0.00 | 0.12 | 0.12 | 33 | 997.7 |
| 20260507025950 | 54 | 274 | 4.3 | 6.1 | 0.00 | 0.12 | 0.12 | 35 | 997.4 |
| 20260507025447 | 54 | 281 | 4.3 | 6.1 | 0.00 | 0.12 | 0.12 | 35 | 997.4 |
| 20260507024945 | 54 | 263 | 2.6 | 5.2 | 0.00 | 0.12 | 0.12 | 35 | 997.0 |
| 20260507024442 | 54 | 278 | 4.3 | 5.2 | 0.00 | 0.12 | 0.12 | 38 | 997.4 |
| 20260507023938 | 55 | 282 | 2.6 | 5.2 | 0.05 | 0.12 | 0.12 | 38 | 997.4 |
| 20260507023435 | 55 | 278 | 2.6 | 5.2 | 0.05 | 0.12 | 0.12 | 38 | 997.4 |
| 20260507022932 | 55 | 274 | 3.5 | 6.1 | 0.00 | 0.11 | 0.11 | 38 | 997.4 |
| 20260507022429 | 56 | 255 | 2.6 | 3.5 | 0.00 | 0.11 | 0.11 | 39 | 997.7 |
| 20260507021925 | 56 | 284 | 2.6 | 5.2 | 0.07 | 0.11 | 0.11 | 37 | 997.7 |
| 20260507021420 | 56 | 287 | 2.6 | 5.2 | 0.07 | 0.11 | 0.11 | 37 | 997.7 |
| 20260507020918 | 57 | 283 | 2.6 | 3.5 | 0.00 | 0.10 | 0.10 | 36 | 997.4 |
| 20260507020414 | 57 | 276 | 3.5 | 5.2 | 0.00 | 0.10 | 0.10 | 36 | 997.7 |
| 20260507015912 | 58 | 267 | 3.5 | 5.2 | 0.00 | 0.10 | 0.10 | 38 | 997.7 |
| 20260507015410 | 59 | 297 | 1.7 | 5.2 | 0.00 | 0.10 | 0.10 | 36 | 997.7 |
| 20260507014907 | 59 | 297 | 0.9 | 1.7 | 0.00 | 0.10 | 0.10 | 36 | 997.0 |
| 20260507014403 | 59 | 281 | 0.9 | 0.9 | 0.00 | 0.10 | 0.10 | 36 | 997.0 |
| 20260507013859 | 59 | 289 | 0.0 | 0.9 | 0.00 | 0.10 | 0.10 | 36 | 997.4 |
| 20260507013356 | 59 | 283 | 0.9 | 1.7 | 0.00 | 0.10 | 0.10 | 37 | 997.4 |
| 20260507012854 | 59 | 292 | 0.0 | 0.9 | 0.00 | 0.10 | 0.10 | 37 | 997.0 |
| 20260507012349 | 59 | 264 | 0.9 | 1.7 | 0.00 | 0.10 | 0.10 | 37 | 997.4 |
| 20260507011847 | 59 | 292 | 0.0 | 0.0 | 0.00 | 0.10 | 0.10 | 37 | 997.4 |
| 20260507011344 | 59 | 320 | 0.9 | 1.7 | 0.00 | 0.10 | 0.10 | 37 | 997.4 |
| 20260507010837 | 59 | 293 | 0.0 | 0.0 | 0.00 | 0.10 | 0.10 | 37 | 997.4 |
| 20260507010333 | 59 | 291 | 0.0 | 1.7 | 0.00 | 0.10 | 0.10 | 36 | 997.4 |
| 20260507005831 | 59 | 294 | 0.0 | 0.9 | 0.00 | 0.10 | 0.10 | 36 | 997.4 |